KB1DML-3 Weather Reports


Display with metric or nautical units.
time (UTC)temp
F
wind
direction
speed
MPH
gust
MPH
rain 1hr
in
rain 24hr
in
rain mn
in
humidity
%
barometer
mb
20260903220018 70 45 8.0 12.0 0.00 0.39 0.39 83 1009.8
20260903215517 70 45 9.0 12.0 0.00 0.39 0.39 82 1009.7
20260903215017 71 45 8.0 11.0 0.00 0.39 0.39 82 1009.7
20260903214517 71 45 9.0 13.0 0.00 0.39 0.39 82 1009.6
20260903214017 71 23 9.0 12.0 0.00 0.39 0.39 82 1009.7
20260903213517 71 45 8.0 11.0 0.00 0.39 0.39 82 1009.6
20260903213037 71 45 9.0 12.0 0.00 0.39 0.39 82 1009.6
20260903212517 71 45 6.0 10.0 0.00 0.39 0.39 82 1009.6
20260903212017 71 45 5.0 8.0 0.00 0.39 0.39 82 1009.6
20260903211517 71 68 6.0 10.0 0.00 0.39 0.39 81 1009.6
20260903211017 71 68 5.0 8.0 0.00 0.39 0.39 81 1009.7
20260903210517 71 68 4.0 7.0 0.00 0.39 0.39 81 1009.8
20260903210017 72 45 4.0 9.0 0.00 0.39 0.39 81 1009.8
20260903205558 72 23 4.0 8.0 0.00 0.39 0.39 81 1009.7
20260903205017 71 23 6.0 9.0 0.00 0.39 0.39 82 1009.8
20260903204517 71 45 4.0 8.0 0.00 0.39 0.39 83 1009.7
20260903204057 70 45 2.0 5.0 0.00 0.39 0.39 83 1009.7
20260903203517 70 45 1.0 2.0 0.00 0.39 0.39 83 1009.8
20260903203017 70 135 1.0 2.0 0.00 0.39 0.39 83 1009.8
20260903202518 70 113 2.0 4.0 0.00 0.39 0.39 82 1009.9
20260903202017 70 113 2.0 3.0 0.00 0.39 0.39 83 1009.8
20260903201517 71 203 2.0 3.0 0.00 0.39 0.39 83 1009.9
20260903201017 70 203 3.0 4.0 0.00 0.39 0.39 83 1009.9
20260903200517 70 203 3.0 5.0 0.00 0.39 0.39 83 1009.8
20260903200017 70 203 3.0 4.0 0.00 0.39 0.39 83 1009.9
20260903195517 70 203 4.0 6.0 0.00 0.39 0.39 82 1010.0
20260903195017 70 203 5.0 7.0 0.00 0.39 0.39 81 1010.1
20260903194517 70 203 5.0 7.0 0.00 0.39 0.39 81 1010.2
20260903194040 70 203 4.0 5.0 0.00 0.39 0.39 81 1010.2
20260903193517 71 203 4.0 5.0 0.00 0.39 0.39 80 1010.2
20260903193017 71 180 3.0 4.0 0.00 0.39 0.39 80 1010.2
20260903192517 72 180 4.0 6.0 0.00 0.39 0.39 79 1010.2
20260903192017 72 23 3.0 7.0 0.00 0.39 0.39 80 1010.3
20260903191517 72 68 4.0 7.0 0.00 0.39 0.39 79 1010.3
20260903191017 72 68 2.0 5.0 0.00 0.39 0.39 79 1010.4
20260903190517 73 68 3.0 7.0 0.00 0.39 0.39 79 1010.4
20260903190017 73 45 6.0 10.0 0.00 0.39 0.39 79 1010.5
20260903185517 73 23 5.0 8.0 0.00 0.39 0.39 80 1010.7
20260903185017 72 23 5.0 9.0 0.00 0.39 0.39 81 1010.8
20260903184537 72 23 6.0 9.0 0.00 0.39 0.39 81 1010.7
20260903184017 72 23 5.0 9.0 0.00 0.39 0.39 82 1010.9
20260903183517 72 23 5.0 8.0 0.00 0.39 0.39 83 1011.0
20260903183017 71 23 6.0 9.0 0.00 0.39 0.39 83 1010.9
20260903182517 71 23 5.0 9.0 0.00 0.39 0.39 83 1011.0
20260903182037 71 45 6.0 9.0 0.00 0.39 0.39 83 1011.2
20260903181517 71 45 7.0 10.0 0.00 0.39 0.39 82 1011.2
20260903181017 71 45 8.0 11.0 0.00 0.39 0.39 82 1011.3
20260903180517 71 23 7.0 11.0 0.00 0.39 0.39 82 1011.3
20260903180017 71 45 8.0 11.0 0.00 0.39 0.39 83 1011.3
20260903175517 71 23 6.0 9.0 0.00 0.39 0.39 84 1011.3
20260903175017 71 23 7.0 9.0 0.00 0.39 0.39 84 1011.2
20260903174537 71 23 9.0 11.0 0.00 0.39 0.39 84 1011.0
20260903174017 71 23 7.0 10.0 0.00 0.39 0.39 85 1011.1
20260903173517 71 23 8.0 11.0 0.00 0.39 0.39 86 1011.2
20260903173037 71 338 7.0 11.0 0.00 0.39 0.39 86 1011.2
20260903172557 71 338 5.0 8.0 0.00 0.39 0.39 86 1011.2
20260903172017 71 338 6.0 10.0 0.00 0.39 0.39 87 1011.2
20260903171516 70 338 7.0 10.0 0.00 0.39 0.39 89 1011.2
20260903171018 69 23 8.0 12.0 0.00 0.39 0.39 88 1011.0
20260903170517 69 23 9.0 12.0 0.00 0.39 0.39 88 1010.9
20260903170057 69 23 8.0 11.0 0.00 0.39 0.39 89 1010.8
20260903165517 69 23 7.0 10.0 0.00 0.39 0.39 89 1010.9
20260903165017 68 45 6.0 10.0 0.00 0.39 0.39 89 1010.8
20260903164517 68 23 5.0 8.0 0.00 0.39 0.39 89 1010.9
20260903164016 68 23 4.0 9.0 0.00 0.39 0.39 89 1011.1
20260903163516 68 23 4.0 8.0 0.00 0.39 0.39 89 1011.2
20260903163017 67 45 4.0 7.0 0.00 0.39 0.39 89 1011.1
20260903162537 67 45 3.0 6.0 0.00 0.39 0.39 89 1011.2
20260903162057 67 45 4.0 6.0 0.00 0.39 0.39 89 1011.0
20260903161516 68 45 2.0 5.0 0.00 0.39 0.39 89 1011.2
20260903161037 68 315 2.0 3.0 0.00 0.39 0.39 89 1011.4
20260903160518 68 315 2.0 5.0 0.00 0.39 0.39 89 1011.4
20260903160017 68 315 3.0 5.0 0.00 0.39 0.39 89 1011.5
20260903155517 68 248 2.0 5.0 0.00 0.39 0.39 90 1011.6
20260903155017 67 270 2.0 5.0 0.00 0.39 0.39 90 1011.6
20260903154537 67 225 2.0 4.0 0.00 0.39 0.39 90 1011.6
20260903154017 67 180 2.0 4.0 0.00 0.39 0.39 90 1011.5
20260903153517 67 203 4.0 5.0 0.00 0.39 0.39 90 1011.4
20260903153017 67 203 4.0 5.0 0.00 0.39 0.39 90 1011.3
20260903152517 67 203 4.0 5.0 0.00 0.39 0.39 90 1011.5
20260903152016 67 203 4.0 6.0 0.00 0.39 0.39 90 1011.4
20260903151516 67 203 4.0 5.0 0.00 0.39 0.39 90 1011.5
20260903151016 67 203 4.0 5.0 0.00 0.39 0.39 90 1011.7
20260903150516 67 203 4.0 5.0 0.00 0.39 0.39 90 1011.8
20260903150016 67 203 4.0 6.0 0.00 0.39 0.39 90 1011.9
20260903145517 66 203 5.0 6.0 0.00 0.39 0.39 90 1011.9
20260903145016 66 203 6.0 7.0 0.00 0.39 0.39 90 1011.9
20260903144516 66 203 5.0 7.0 0.00 0.39 0.39 90 1011.9
20260903144016 67 203 5.0 7.0 0.00 0.39 0.39 90 1011.9
20260903143516 66 203 5.0 6.0 0.00 0.39 0.39 90 1012.0
20260903143016 66 203 4.0 6.0 0.00 0.39 0.39 90 1012.2
20260903142537 66 203 5.0 7.0 0.00 0.39 0.39 90 1012.3
20260903142017 66 203 5.0 6.0 0.00 0.39 0.39 90 1012.4
20260903141516 66 203 6.0 7.0 0.00 0.39 0.39 90 1012.4
20260903141017 66 203 4.0 6.0 0.00 0.39 0.39 90 1012.4
20260903140516 66 203 4.0 6.0 0.00 0.39 0.39 90 1012.4
20260903140016 66 203 5.0 6.0 0.00 0.39 0.39 90 1012.4
20260903135517 66 203 5.0 6.0 0.00 0.39 0.39 90 1012.4
20260903135016 65 203 5.0 7.0 0.01 0.39 0.39 90 1012.4
20260903134517 65 203 6.0 7.0 0.01 0.39 0.39 90 1012.4
20260903134037 66 203 5.0 6.0 0.01 0.39 0.39 90 1012.3
20260903133517 66 203 5.0 6.0 0.01 0.39 0.39 90 1012.4
20260903133016 66 203 6.0 7.0 0.02 0.39 0.39 90 1012.4
20260903132517 66 203 5.0 7.0 0.03 0.39 0.39 90 1012.3
20260903132016 66 225 5.0 7.0 0.03 0.39 0.39 90 1012.5
20260903131516 66 225 5.0 7.0 0.04 0.39 0.39 89 1012.4
20260903131016 66 203 6.0 8.0 0.05 0.39 0.39 89 1012.5
20260903130516 66 203 6.0 7.0 0.06 0.39 0.39 89 1012.4
20260903130017 66 203 7.0 8.0 0.08 0.39 0.39 89 1012.6
20260903125516 66 203 7.0 9.0 0.11 0.39 0.39 89 1012.6
20260903125016 66 203 7.0 9.0 0.12 0.38 0.38 89 1012.7
20260903124517 66 203 8.0 10.0 0.15 0.38 0.38 89 1012.7
20260903124016 66 203 9.0 11.0 0.17 0.38 0.38 89 1012.8
20260903123537 66 203 10.0 12.0 0.18 0.38 0.38 89 1012.7
20260903123017 66 203 9.0 12.0 0.18 0.37 0.37 89 1013.0
20260903122516 66 203 10.0 13.0 0.17 0.36 0.36 89 1013.1
20260903122017 66 203 11.0 15.0 0.18 0.36 0.36 88 1013.2
20260903121516 66 225 9.0 13.0 0.18 0.35 0.35 88 1013.3
20260903121016 66 225 10.0 15.0 0.17 0.34 0.34 88 1013.3
20260903120516 66 248 10.0 15.0 0.16 0.33 0.33 88 1013.5
20260903120016 66 270 9.0 13.0 0.14 0.31 0.31 88 1013.5
20260903115516 66 248 8.0 13.0 0.12 0.28 0.28 88 1013.4
20260903115017 66 225 7.0 13.0 0.11 0.26 0.26 88 1013.3
20260903114516 66 203 11.0 15.0 0.09 0.23 0.23 88 1013.3
20260903114057 66 203 9.0 13.0 0.07 0.21 0.21 87 1013.2
20260903113516 66 203 11.0 15.0 0.06 0.20 0.20 87 1013.2
20260903113016 66 203 11.0 15.0 0.05 0.19 0.19 87 1013.2
20260903112537 66 203 11.0 14.0 0.05 0.19 0.19 87 1013.2
20260903112016 66 203 11.0 16.0 0.04 0.18 0.18 86 1013.2
20260903111516 66 180 13.0 18.0 0.03 0.17 0.17 86 1013.2
20260903111017 66 203 12.0 15.0 0.04 0.17 0.17 86 1013.2
20260903110517 66 203 13.0 16.0 0.05 0.17 0.17 86 1013.4
20260903110016 66 203 13.0 16.0 0.05 0.17 0.17 86 1013.4
20260903105516 66 203 12.0 16.0 0.04 0.16 0.16 85 1013.3
20260903105016 67 203 12.0 14.0 0.03 0.15 0.15 85 1013.2
20260903104516 67 203 13.0 16.0 0.03 0.14 0.14 85 1013.2
20260903104016 67 203 15.0 19.0 0.04 0.14 0.14 86 1013.0
20260903103516 66 203 14.0 19.0 0.08 0.14 0.14 86 1013.0
20260903103016 66 203 14.0 17.0 0.11 0.14 0.14 86 1013.0
20260903102516 66 203 16.0 20.0 0.13 0.14 0.14 85 1013.0
20260903102016 66 180 20.0 24.0 0.13 0.14 0.14 85 1013.0
20260903101517 66 180 22.0 27.0 0.14 0.14 0.14 86 1013.0
20260903101016 66 180 19.0 25.0 0.13 0.13 0.13 86 1013.0
20260903100516 66 180 17.0 20.0 0.12 0.12 0.12 86 1013.1
20260903100016 66 180 21.0 25.0 0.12 0.12 0.12 85 1013.2
20260903095516 66 203 18.0 25.0 0.12 0.12 0.12 86 1013.2
20260903095016 66 180 18.0 24.0 0.12 0.12 0.12 86 1013.2
20260903094516 66 180 20.0 27.0 0.11 0.11 0.11 86 1013.1
20260903094016 66 180 16.0 20.0 0.10 0.10 0.10 87 1013.3
20260903093516 66 180 17.0 20.0 0.06 0.06 0.06 87 1013.3
20260903093016 66 180 17.0 20.0 0.03 0.03 0.03 85 1013.5
20260903092516 66 203 18.0 21.0 0.01 0.01 0.01 85 1013.6
20260903092036 67 203 19.0 22.0 0.01 0.01 0.01 84 1013.7
20260903091536 67 203 20.0 22.0 0.00 0.00 0.00 84 1013.6
20260903091016 67 180 19.0 23.0 0.00 0.00 0.00 84 1013.6
20260903090516 67 180 18.0 21.0 0.00 0.00 0.00 84 1013.5
20260903090016 67 180 19.0 23.0 0.00 0.00 0.00 84 1013.5
20260903085516 67 180 18.0 21.0 0.00 0.00 0.00 84 1013.6
20260903085016 67 180 17.0 20.0 0.00 0.00 0.00 84 1013.7
20260903084516 67 180 17.0 21.0 0.00 0.00 0.00 84 1013.8
20260903084016 67 180 19.0 22.0 0.00 0.00 0.00 84 1013.7
20260903083516 67 180 19.0 23.0 0.00 0.00 0.00 84 1013.7
20260903083016 67 180 19.0 23.0 0.00 0.00 0.00 84 1013.8
20260903082516 67 180 19.0 23.0 0.00 0.00 0.00 84 1014.0
20260903082016 67 180 18.0 20.0 0.00 0.00 0.00 84 1014.1
20260903081516 67 180 16.0 20.0 0.00 0.00 0.00 84 1014.3
20260903081016 67 180 17.0 20.0 0.00 0.00 0.00 84 1014.3
20260903080516 67 180 17.0 20.0 0.00 0.00 0.00 84 1014.3
20260903080036 67 180 18.0 20.0 0.00 0.00 0.00 83 1014.1
20260903075536 67 180 18.0 22.0 0.00 0.00 0.00 83 1014.1
20260903075015 67 180 18.0 21.0 0.00 0.00 0.00 84 1014.2
20260903074516 67 180 19.0 23.0 0.00 0.00 0.00 84 1014.3
20260903074016 67 180 18.0 23.0 0.00 0.00 0.00 83 1014.2
20260903073516 67 180 19.0 22.0 0.00 0.00 0.00 83 1014.3
20260903073015 67 180 18.0 21.0 0.00 0.00 0.00 83 1014.5
20260903072536 67 180 18.0 21.0 0.00 0.00 0.00 83 1014.6
20260903071516 67 180 17.0 20.0 0.00 0.00 0.00 82 1014.8
20260903071015 67 180 18.0 21.0 0.00 0.00 0.00 82 1014.9
20260903070516 67 180 19.0 22.0 0.00 0.00 0.00 81 1014.8
20260903070016 67 180 17.0 21.0 0.00 0.00 0.00 81 1015.1
20260903065516 67 180 16.0 19.0 0.00 0.00 0.00 80 1015.3
20260903065015 67 180 17.0 21.0 0.00 0.00 0.00 80 1015.3
20260903064516 67 180 17.0 20.0 0.00 0.00 0.00 80 1015.4
20260903064016 67 180 17.0 19.0 0.00 0.00 0.00 79 1015.6
20260903063516 67 180 16.0 20.0 0.00 0.00 0.00 78 1015.8
20260903063015 67 180 15.0 18.0 0.00 0.00 0.00 79 1016.0
20260903062515 67 180 15.0 19.0 0.00 0.00 0.00 79 1016.1
20260903062016 67 180 15.0 18.0 0.00 0.00 0.00 79 1016.1
20260903061515 67 180 15.0 18.0 0.00 0.00 0.00 78 1016.2
20260903061016 67 180 15.0 18.0 0.00 0.00 0.00 79 1016.3
20260903060515 67 180 17.0 20.0 0.00 0.00 0.00 77 1016.3
20260903060016 67 180 18.0 21.0 0.00 0.00 0.00 77 1016.2
20260903055516 67 180 17.0 20.0 0.00 0.00 0.00 79 1016.4
20260903055036 67 180 17.0 20.0 0.00 0.00 0.00 78 1016.4
20260903054516 67 180 16.0 19.0 0.00 0.00 0.00 79 1016.6
20260903054015 67 180 16.0 19.0 0.00 0.00 0.00 79 1016.6
20260903053516 67 180 16.0 19.0 0.00 0.00 0.00 80 1016.5
20260903053015 67 180 16.0 19.0 0.00 0.00 0.00 82 1016.6
20260903052515 67 180 16.0 20.0 0.00 0.00 0.00 82 1016.5
20260903052016 67 180 14.0 18.0 0.00 0.00 0.00 82 1016.7
20260903051536 67 180 13.0 15.0 0.00 0.00 0.00 82 1016.9
20260903051016 67 180 13.0 15.0 0.00 0.00 0.00 83 1016.9
20260903050536 67 180 13.0 16.0 0.00 0.00 0.00 83 1016.9
20260903050056 67 180 13.0 16.0 0.00 0.00 0.00 84 1016.8
20260903045556 67 180 14.0 17.0 0.00 0.00 0.00 83 1016.7
20260903045015 67 180 13.0 16.0 0.00 0.00 0.00 83 1016.8
20260903044515 67 180 13.0 16.0 0.00 0.00 0.00 83 1016.8
20260903044016 67 180 12.0 16.0 0.00 0.00 0.00 84 1016.9
20260903043516 67 180 12.0 14.0 0.00 0.00 0.00 83 1017.0
20260903043016 67 180 12.0 15.0 0.00 0.00 0.00 83 1016.9
20260903042515 67 180 11.0 14.0 0.00 0.00 0.00 83 1016.9
20260903042016 67 180 10.0 13.0 0.00 0.00 0.00 83 1017.0
20260903041536 67 180 11.0 12.0 0.00 0.00 0.00 83 1017.0
20260903041016 67 180 11.0 13.0 0.00 0.00 0.00 83 1016.9
20260903040515 67 180 11.0 13.0 0.00 0.00 0.00 83 1017.0
20260903040015 67 180 10.0 12.0 0.00 0.00 0.00 83 1017.1
20260903035516 67 180 9.0 11.0 0.00 0.00 0.00 83 1017.1
20260903035016 67 180 8.0 10.0 0.00 0.00 0.00 83 1017.4
20260903034516 67 180 8.0 10.0 0.00 0.00 0.00 83 1017.4
20260903034036 67 203 9.0 10.0 0.00 0.00 0.00 83 1017.5
20260903033516 67 203 9.0 10.0 0.00 0.00 0.00 83 1017.5
20260903033016 67 180 10.0 12.0 0.00 0.00 0.00 83 1017.5
20260903032516 67 180 10.0 12.0 0.00 0.00 0.00 83 1017.5
20260903032016 67 180 10.0 12.0 0.00 0.00 0.00 83 1017.5
20260903031536 67 180 10.0 12.0 0.00 0.00 0.00 83 1017.7
20260903031016 67 180 10.0 11.0 0.00 0.00 0.00 83 1017.6
20260903030537 67 180 10.0 12.0 0.00 0.00 0.00 83 1017.6
20260903030036 67 180 12.0 15.0 0.00 0.00 0.00 82 1017.4
20260903025516 67 180 12.0 14.0 0.00 0.00 0.00 82 1017.4
20260903025016 67 180 11.0 14.0 0.00 0.00 0.00 82 1017.5
20260903024516 67 180 12.0 14.0 0.00 0.00 0.00 82 1017.5
20260903024015 67 180 13.0 16.0 0.00 0.00 0.00 82 1017.4
20260903023515 67 180 14.0 17.0 0.00 0.00 0.00 82 1017.3
20260903023036 67 180 15.0 17.0 0.00 0.00 0.00 82 1017.3
20260903022515 67 180 14.0 18.0 0.00 0.00 0.00 82 1017.4
20260903022016 67 180 15.0 18.0 0.00 0.00 0.00 82 1017.5
20260903021516 67 180 14.0 17.0 0.00 0.00 0.00 82 1017.7
20260903021016 67 180 13.0 16.0 0.00 0.00 0.00 82 1017.8
20260903020516 67 180 12.0 16.0 0.00 0.00 0.00 82 1018.0
20260903020015 67 180 14.0 16.0 0.00 0.00 0.00 81 1017.8
20260903015516 67 180 15.0 18.0 0.00 0.00 0.00 82 1017.7
20260903015015 67 180 14.0 17.0 0.00 0.00 0.00 82 1017.7
20260903014516 67 180 15.0 18.0 0.00 0.00 0.00 82 1017.6
20260903014016 67 180 15.0 17.0 0.00 0.00 0.00 82 1017.6
20260903013516 67 180 15.0 18.0 0.00 0.00 0.00 82 1017.7
20260903013015 67 180 14.0 16.0 0.00 0.00 0.00 82 1017.6
20260903012515 67 180 13.0 16.0 0.00 0.00 0.00 82 1017.8
20260903012036 67 180 13.0 16.0 0.00 0.00 0.00 82 1017.8
20260903011516 67 180 11.0 13.0 0.00 0.00 0.00 82 1017.9
20260903011016 67 180 11.0 13.0 0.00 0.00 0.00 82 1018.1
20260903010516 67 180 12.0 16.0 0.00 0.00 0.00 82 1018.0
20260903010015 67 180 12.0 14.0 0.00 0.00 0.00 83 1017.9
20260903005536 67 180 12.0 15.0 0.00 0.00 0.00 82 1017.9
20260903005015 67 180 11.0 14.0 0.00 0.00 0.00 83 1018.0
20260903004516 67 180 12.0 14.0 0.00 0.00 0.00 83 1018.1
20260903004015 67 180 12.0 15.0 0.00 0.00 0.00 83 1017.9
20260903003515 67 180 11.0 14.0 0.00 0.00 0.00 83 1018.0
20260903003015 67 180 11.0 13.0 0.00 0.00 0.00 82 1018.0
20260903002516 67 180 11.0 13.0 0.00 0.00 0.00 82 1018.1
20260903002016 67 180 11.0 13.0 0.00 0.00 0.00 82 1018.1
20260903001556 67 180 11.0 13.0 0.00 0.00 0.00 82 1018.3
20260903001016 68 180 10.0 13.0 0.00 0.00 0.00 81 1018.4
20260903000515 68 180 10.0 14.0 0.00 0.00 0.00 81 1018.5
20260903000056 68 180 10.0 13.0 0.00 0.00 0.00 80 1018.6
20260902235516 68 180 10.0 13.0 0.00 0.00 0.00 80 1018.5
20260902235056 68 158 9.0 12.0 0.00 0.00 0.00 81 1018.5
20260902234515 68 158 10.0 13.0 0.00 0.00 0.00 81 1018.2
20260902234015 68 158 9.0 12.0 0.00 0.00 0.00 81 1018.3
20260902233516 68 158 10.0 15.0 0.00 0.00 0.00 80 1018.4
20260902233015 68 158 11.0 13.0 0.00 0.00 0.00 80 1018.4
20260902232515 68 158 11.0 15.0 0.00 0.00 0.00 80 1018.5
20260902232015 68 158 10.0 16.0 0.00 0.00 0.00 80 1018.4
20260902231516 68 158 11.0 14.0 0.00 0.00 0.00 81 1018.5
20260902231015 68 158 10.0 14.0 0.00 0.00 0.00 80 1018.6
20260902230515 68 158 9.0 14.0 0.00 0.00 0.00 80 1018.6
20260902230015 68 158 8.0 11.0 0.00 0.00 0.00 80 1018.7
20260902225515 68 135 7.0 11.0 0.00 0.00 0.00 80 1018.7
20260902225015 68 135 6.0 9.0 0.00 0.00 0.00 81 1018.9
20260902224516 68 135 6.0 9.0 0.00 0.00 0.00 81 1018.9
20260902224016 68 135 5.0 9.0 0.00 0.00 0.00 81 1019.1
20260902223515 68 135 5.0 8.0 0.00 0.00 0.00 81 1019.1
20260902223016 68 158 5.0 9.0 0.00 0.00 0.00 81 1019.1
20260902222516 68 158 5.0 9.0 0.00 0.00 0.00 81 1019.1
20260902222015 68 135 6.0 10.0 0.00 0.00 0.00 81 1019.2
20260902221515 68 135 6.0 9.0 0.00 0.00 0.00 81 1019.2
20260902221015 68 135 6.0 10.0 0.00 0.00 0.00 81 1019.3
20260902220516 69 135 7.0 9.0 0.00 0.00 0.00 81 1019.1